Location: Elende
(51.4317°N, 10.6316°E)
Time: 11:12:39
(UTC+00:00)

Meteor 1-15 Rocket - Pass Details

Date: 18 September 2020
Orbit: 840 x 907 km, 81.2° (Epoch: 25 October)

Event Time Altitude Azimuth Distance (km) Brightness Sun altitude
Rises 19:51:56 0° 198° (SSW) 3,398 7.2 -22.5°
Reaches altitude 10° 19:54:20 10° 200° (SSW) 2,473 6.5 -22.8°
Maximum altitude 19:59:56 71° 285° (WNW) 910 4.4 -23.5°
Drops below altitude 10° 20:05:41 10° 10° (N) 2,533 7.0 -24.2°
Sets 20:08:10 0° 12° (NNE) 3,485 7.7 -24.5°
